Weather History for KGEZ - September, 2013

Change the Weather History Date:

Wednesday, September 18, 2013

  Actual Average Record
Temperature  
Mean Temperature 71 °F 65 °F  
Max Temperature 84 °F 77 °F 87 °F (2010)
Min Temperature 58 °F 52 °F 43 °F (1999)
Degree Days  
Heating Degree Days 0 3  
Month to date heating degree days 17 22  
Since 1 July heating degree days 25 28  
Cooling Degree Days 6 2  
Month to date cooling degree days 128 73  
Year to date cooling degree days 1113 879  
Growing Degree Days 20 (Base 50)    
Moisture  
Dew Point 59 °F    
Average Humidity 68    
Maximum Humidity 84    
Minimum Humidity 51    
Precipitation  
Precipitation T in 0.10 in 0.55 in (2006)
Month to date precipitation 0.66 1.93  
Year to date precipitation 22.07 32.21  
Sea Level Pressure  
Sea Level Pressure 30.10 in    
Wind  
Wind Speed 4 mph (SSE)    
Max Wind Speed 13 mph    
Max Gust Speed 16 mph    
Visibility 10 miles    
Events      
T = Trace of Precipitation, MM = Missing Value Source: NWS Daily Summary

Daily Weather History Graph

Daily Weather History Graph

Search for Another Location

Airport or City:

Trip Planner

Search our weather history database for the weather conditions in past years. The results will help you decide how hot, cold, wet, or windy it might be!

Date:

Astronomy

Sep. 18, 2013 Rise Set
Actual Time 7:27 AM EDT 7:46 PM EDT
Civil Twilight 7:00 AM EDT 8:13 PM EDT
Nautical Twilight 6:28 AM EDT 8:44 PM EDT
Astronomical Twilight 5:56 AM EDT 9:17 PM EDT
Moon 7:09 PM EDT (9/18) 6:29 AM EDT (9/18)
Length of Visible Light 13h 12m
Length of Day
12h 19m
Waxing Gibbous, 99% of the Moon is Illuminated
Sep 18
Waxing Gibbous
Sep 19
Full
Sep 26
Last Quarter
Oct 4
New
Oct 11
First Quarter

Hourly Weather History & Observations

Time (EDT) Temp. Heat Index Dew Point Humidity Pressure Visibility Wind Dir Wind Speed Gust Speed Precip Events Conditions
12:53 AM 59.0 °F - 52.0 °F 78% 30.14 in 10.0 mi ESE 3.5 mph - N/A   Clear
1:53 AM 59.0 °F - 52.0 °F 78% 30.13 in 10.0 mi ESE 5.8 mph - N/A   Partly Cloudy
2:53 AM 62.1 °F - 53.1 °F 72% 30.13 in 10.0 mi ESE 3.5 mph - N/A   Overcast
3:53 AM 60.1 °F - 53.1 °F 78% 30.12 in 10.0 mi Calm Calm - N/A   Scattered Clouds
4:53 AM 59.0 °F - 53.1 °F 81% 30.11 in 10.0 mi Calm Calm - N/A   Overcast
5:53 AM 60.1 °F - 54.0 °F 80% 30.12 in 10.0 mi ENE 3.5 mph - N/A   Overcast
6:53 AM 60.1 °F - 54.0 °F 80% 30.13 in 10.0 mi ESE 3.5 mph - N/A   Overcast
7:53 AM 61.0 °F - 55.0 °F 81% 30.14 in 10.0 mi Calm Calm - 0.00 in   Overcast
8:53 AM 62.1 °F - 55.9 °F 80% 30.14 in 10.0 mi Calm Calm - N/A   Mostly Cloudy
9:53 AM 66.0 °F - 55.9 °F 70% 30.15 in 10.0 mi SE 3.5 mph - N/A   Scattered Clouds
10:53 AM 71.1 °F - 57.0 °F 61% 30.15 in 10.0 mi Calm Calm - N/A   Mostly Cloudy
11:53 AM 75.9 °F - 59.0 °F 56% 30.13 in 10.0 mi Variable 5.8 mph - N/A   Overcast
12:53 PM 75.9 °F - 59.0 °F 56% 30.12 in 10.0 mi WSW 5.8 mph - N/A   Overcast
1:53 PM 79.0 °F - 60.1 °F 52% 30.10 in 10.0 mi Variable 3.5 mph - N/A   Mostly Cloudy
2:53 PM 81.0 °F 81.6 °F 60.1 °F 49% 30.07 in 10.0 mi Calm Calm - N/A   Scattered Clouds
3:53 PM 81.0 °F 81.7 °F 61.0 °F 50% 30.05 in 10.0 mi SSW 4.6 mph - N/A   Mostly Cloudy
4:53 PM 82.9 °F 83.7 °F 62.1 °F 49% 30.04 in 10.0 mi South 3.5 mph - N/A   Mostly Cloudy
5:53 PM 81.0 °F 81.9 °F 62.1 °F 52% 30.03 in 10.0 mi SSW 6.9 mph - N/A   Scattered Clouds
6:53 PM 78.1 °F - 63.0 °F 60% 30.04 in 10.0 mi South 10.4 mph - N/A   Mostly Cloudy
7:53 PM 75.0 °F - 63.0 °F 66% 30.04 in 10.0 mi South 8.1 mph - N/A   Clear
8:53 PM 73.0 °F - 64.9 °F 76% 30.06 in 10.0 mi South 6.9 mph - N/A   Clear
9:53 PM 72.0 °F - 64.9 °F 78% 30.06 in 10.0 mi South 5.8 mph - N/A   Clear
10:53 PM 71.1 °F - 64.9 °F 81% 30.06 in 10.0 mi South 6.9 mph - N/A   Clear
11:53 PM 71.1 °F - 64.9 °F 81% 30.05 in 8.0 mi South 6.9 mph - N/A   Clear